Tracking 19720 objects as of 26-Jun-2019
HD Live streaming from Space Station
objects crossing your sky now

ATLAS CENTAUR R/B

Track ATLAS CENTAUR R/B now!


NORAD ID: 10025
Int'l Code: 1977-041B
Perigee: 576.9 km
Apogee: 36,218.4 km
Inclination: 21.7 °
Period: 646.6 minutes
Semi major axis: 24768 km
RCS: 18.6679 m2 (large)
Launch date: May 26, 1977
Source: United States (US)
Launch site: AIR FORCE EASTERN TEST RANGE (AFETR)

Note: This is a ROCKET BODY
aabbcc
Your satellite tracking list
Your tracking list is empty




NASA's NSSDC Master Catalog

Two Line Element Set (TLE):
1 10025U 77041B   19175.38116352 -.00000216 +00000-0 -60384-3 0  9994
2 10025 021.7415 065.2231 7194895 351.2226 215.4153 02.22715363341137
Source of the keplerian elements: AFSPC